Location: Oulou
(10.7667°N, 12.5167°W)
Time: 14:17:27
(UTC+00:00)

Cosmos 2322 Rocket - Pass Details

Date: 20 September 2019
Orbit: 834 x 849 km, 71.0° (Epoch: 15 October)

Event Time Altitude Azimuth Distance (km) Brightness Sun altitude
Rises 19:38:06 0° 327° (NNW) 3,372 5.9 -13.2°
Reaches altitude 10° 19:40:46 10° 317° (NW) 2,439 5.3 -13.9°
Maximum altitude 19:45:39 31° 256° (WSW) 1,413 4.1 -15.1°
Drops below altitude 10° 19:50:34 10° 195° (SSW) 2,447 4.7 -16.3°
Sets 19:53:15 0° 185° (S) 3,384 5.4 -16.9°
